Location: Aciu?a
(46.2833°N, 22.4500°E)
Time: 13:27:06
(UTC+00:00)

ATLAS 3B R/B - Pass Details

Date: 25 October 2021
Orbit: 989 x 1206 km, 63.8° (Epoch: 25 November)

Event Time Altitude Azimuth Distance (km) Brightness Sun altitude
Rises 16:56:25 0° 274° (W) 3,760 7.4 -16.1°
Reaches altitude 10° 16:59:37 10° 288° (WNW) 2,840 6.1 -16.7°
Maximum altitude 17:04:49 23° 340° (NNW) 2,092 4.4 -17.6°
Drops below altitude 10° 17:10:13 10° 31° (NNE) 2,964 4.7 -18.5°
Enters shadow 17:11:17 - 36° (NE) 3,257 4.9 -18.7°
